| time (UTC) | temp F | wind direction | speed MPH | gust MPH | rain 1hr in | rain 24hr in | rain mn in | humidity % | barometer mb |
| 20260510192003 | 69 | 191 | 0.0 | 3.0 | 0.00 | 0.32 | 0.00 | 56 | 1010.6 |
| 20260510191523 | 69 | 190 | 0.0 | 4.0 | 0.00 | 0.34 | 0.00 | 54 | 1011.1 |
| 20260510191004 | 70 | 190 | 0.0 | 6.0 | 0.00 | 0.33 | 0.00 | 54 | 1010.6 |
| 20260510190028 | 70 | 190 | 0.0 | 5.0 | 0.00 | 0.35 | 0.00 | 52 | 1011.0 |
| 20260510190003 | 70 | 191 | 0.0 | 5.0 | 0.00 | 0.34 | 0.00 | 52 | 1010.5 |
| 20260510185504 | 70 | 191 | 0.0 | 5.0 | 0.00 | 0.34 | 0.00 | 54 | 1010.7 |
| 20260510185003 | 70 | 191 | 0.0 | 3.0 | 0.00 | 0.34 | 0.00 | 55 | 1010.7 |
| 20260510184513 | 70 | 190 | 0.0 | 3.0 | 0.00 | 0.35 | 0.00 | 53 | 1011.1 |
| 20260510184503 | 70 | 191 | 0.0 | 3.0 | 0.00 | 0.34 | 0.00 | 53 | 1010.6 |
| 20260510184003 | 70 | 191 | 0.0 | 2.0 | 0.00 | 0.34 | 0.00 | 55 | 1010.5 |
| 20260510183504 | 70 | 191 | 0.0 | 4.0 | 0.00 | 0.34 | 0.00 | 54 | 1010.7 |
| 20260510183012 | 70 | 190 | 0.0 | 4.0 | 0.00 | 0.35 | 0.00 | 55 | 1011.3 |
| 20260510183003 | 70 | 191 | 0.0 | 4.0 | 0.00 | 0.34 | 0.00 | 55 | 1010.8 |
| 20260510182503 | 71 | 191 | 1.0 | 7.0 | 0.00 | 0.34 | 0.00 | 53 | 1010.8 |
| 20260510182004 | 71 | 191 | 0.0 | 7.0 | 0.00 | 0.34 | 0.00 | 52 | 1010.7 |
| 20260510181534 | 71 | 190 | 0.0 | 3.0 | 0.00 | 0.35 | 0.00 | 52 | 1011.0 |
| 20260510181503 | 71 | 191 | 0.0 | 2.0 | 0.00 | 0.34 | 0.00 | 52 | 1010.5 |
| 20260510181003 | 71 | 191 | 0.0 | 2.0 | 0.00 | 0.34 | 0.00 | 56 | 1010.6 |
| 20260510180503 | 70 | 190 | 0.0 | 2.0 | 0.00 | 0.34 | 0.00 | 54 | 1010.8 |
| 20260510180026 | 70 | 190 | 0.0 | 2.0 | 0.00 | 0.37 | 0.00 | 55 | 1011.2 |
| 20260510180004 | 71 | 190 | 0.0 | 2.0 | 0.00 | 0.34 | 0.00 | 55 | 1010.7 |
| 20260510175003 | 70 | 191 | 0.0 | 5.0 | 0.00 | 0.35 | 0.00 | 55 | 1010.6 |
| 20260510174512 | 70 | 190 | 0.0 | 6.0 | 0.00 | 0.37 | 0.00 | 53 | 1011.2 |
| 20260510174004 | 71 | 191 | 0.0 | 5.0 | 0.00 | 0.35 | 0.00 | 54 | 1010.8 |
| 20260510173503 | 70 | 191 | 0.0 | 6.0 | 0.00 | 0.35 | 0.00 | 58 | 1010.7 |
| 20260510173020 | 70 | 190 | 0.0 | 6.0 | 0.00 | 0.37 | 0.00 | 55 | 1011.3 |
| 20260510173003 | 71 | 191 | 0.0 | 6.0 | 0.00 | 0.35 | 0.00 | 55 | 1010.9 |
| 20260510172504 | 71 | 190 | 0.0 | 4.0 | 0.00 | 0.35 | 0.00 | 53 | 1010.9 |
| 20260510172004 | 71 | 191 | 0.0 | 3.0 | 0.00 | 0.35 | 0.00 | 52 | 1011.0 |
| 20260510171511 | 71 | 190 | 0.0 | 7.0 | 0.00 | 0.37 | 0.00 | 56 | 1011.5 |
| 20260510171503 | 71 | 191 | 0.0 | 7.0 | 0.00 | 0.36 | 0.00 | 54 | 1011.0 |
| 20260510171003 | 70 | 191 | 0.0 | 7.0 | 0.00 | 0.36 | 0.00 | 55 | 1011.1 |
| 20260510170504 | 70 | 191 | 0.0 | 3.0 | 0.00 | 0.37 | 0.00 | 53 | 1011.3 |
| 20260510170015 | 69 | 190 | 0.0 | 4.0 | 0.00 | 0.40 | 0.00 | 55 | 1011.9 |
| 20260510170004 | 70 | 191 | 1.0 | 5.0 | 0.00 | 0.37 | 0.00 | 55 | 1011.3 |
| 20260510165003 | 70 | 191 | 1.0 | 8.0 | 0.00 | 0.38 | 0.00 | 56 | 1011.4 |
| 20260510164513 | 69 | 190 | 0.0 | 5.0 | 0.00 | 0.40 | 0.00 | 57 | 1011.9 |
| 20260510164504 | 69 | 191 | 0.0 | 3.0 | 0.00 | 0.38 | 0.00 | 59 | 1011.4 |
| 20260510164003 | 69 | 191 | 0.0 | 7.0 | 0.00 | 0.38 | 0.00 | 58 | 1011.5 |
| 20260510163503 | 68 | 191 | 0.0 | 7.0 | 0.00 | 0.38 | 0.00 | 59 | 1011.6 |
| 20260510163017 | 68 | 190 | 0.0 | 4.0 | 0.00 | 0.40 | 0.00 | 58 | 1012.1 |
| 20260510163004 | 69 | 191 | 0.0 | 4.0 | 0.00 | 0.38 | 0.00 | 58 | 1011.5 |
| 20260510162504 | 69 | 191 | 0.0 | 4.0 | 0.00 | 0.39 | 0.00 | 58 | 1011.4 |
| 20260510162003 | 68 | 191 | 0.0 | 1.0 | 0.00 | 0.39 | 0.00 | 61 | 1011.6 |
| 20260510161515 | 67 | 190 | 0.0 | 4.0 | 0.00 | 0.40 | 0.00 | 59 | 1012.2 |
| 20260510161004 | 67 | 191 | 0.0 | 2.0 | 0.00 | 0.39 | 0.00 | 60 | 1011.6 |
| 20260510160503 | 67 | 191 | 0.0 | 1.0 | 0.00 | 0.40 | 0.00 | 61 | 1011.7 |
| 20260510160012 | 66 | 190 | 0.0 | 0.0 | 0.00 | 0.41 | 0.00 | 61 | 1012.3 |
| 20260510160003 | 66 | 0 | 0.0 | 0.0 | 0.00 | 0.40 | 0.00 | 61 | 1011.7 |
| 20260510155504 | 66 | 191 | 0.0 | 5.0 | 0.00 | 0.40 | 0.00 | 60 | 1011.9 |
| 20260510155003 | 66 | 191 | 0.0 | 5.0 | 0.00 | 0.40 | 0.00 | 60 | 1011.9 |
| 20260510154511 | 66 | 190 | 0.0 | 0.0 | 0.00 | 0.41 | 0.00 | 62 | 1012.6 |
| 20260510154503 | 67 | 191 | 0.0 | 4.0 | 0.00 | 0.40 | 0.00 | 62 | 1012.0 |
| 20260510154003 | 67 | 191 | 0.0 | 4.0 | 0.00 | 0.40 | 0.00 | 60 | 1011.9 |
| 20260510153504 | 67 | 191 | 0.0 | 5.0 | 0.00 | 0.40 | 0.00 | 61 | 1011.9 |
| 20260510153023 | 67 | 190 | 0.0 | 5.0 | 0.00 | 0.41 | 0.00 | 60 | 1012.6 |
| 20260510153004 | 67 | 191 | 0.0 | 5.0 | 0.00 | 0.40 | 0.00 | 60 | 1011.9 |
| 20260510152503 | 67 | 191 | 0.0 | 3.0 | 0.00 | 0.40 | 0.00 | 58 | 1012.0 |
| 20260510152004 | 67 | 0 | 0.0 | 0.0 | 0.00 | 0.40 | 0.00 | 65 | 1012.0 |
| 20260510151512 | 66 | 190 | 0.0 | 4.0 | 0.00 | 0.41 | 0.00 | 62 | 1012.5 |
| 20260510151503 | 66 | 191 | 0.0 | 4.0 | 0.00 | 0.41 | 0.00 | 62 | 1011.9 |
| 20260510151003 | 66 | 190 | 0.0 | 4.0 | 0.00 | 0.41 | 0.00 | 63 | 1011.8 |
| 20260510150012 | 65 | 190 | 0.0 | 5.0 | 0.00 | 0.43 | 0.00 | 65 | 1012.4 |
| 20260510150004 | 65 | 191 | 0.0 | 5.0 | 0.00 | 0.41 | 0.00 | 65 | 1011.8 |
| 20260510145503 | 65 | 0 | 0.0 | 0.0 | 0.00 | 0.41 | 0.00 | 66 | 1011.7 |
| 20260510145003 | 65 | 191 | 0.0 | 1.0 | 0.00 | 0.41 | 0.00 | 66 | 1011.8 |
| 20260510144520 | 64 | 190 | 0.0 | 1.0 | 0.00 | 0.43 | 0.00 | 66 | 1012.4 |
| 20260510144503 | 64 | 191 | 0.0 | 1.0 | 0.00 | 0.41 | 0.00 | 66 | 1011.8 |
| 20260510144004 | 64 | 190 | 0.0 | 4.0 | 0.00 | 0.41 | 0.00 | 72 | 1011.8 |
| 20260510143503 | 63 | 190 | 0.0 | 4.0 | 0.00 | 0.42 | 0.00 | 67 | 1011.9 |
| 20260510143012 | 62 | 190 | 0.0 | 1.0 | 0.00 | 0.43 | 0.00 | 73 | 1012.5 |
| 20260510143003 | 63 | 191 | 0.0 | 1.0 | 0.00 | 0.42 | 0.00 | 73 | 1011.9 |
| 20260510142504 | 62 | 191 | 0.0 | 1.0 | 0.00 | 0.42 | 0.00 | 70 | 1011.8 |
| 20260510142004 | 62 | 191 | 0.0 | 1.0 | 0.00 | 0.42 | 0.00 | 71 | 1011.9 |
| 20260510140010 | 58 | 190 | 0.0 | 1.0 | 0.00 | 0.44 | 0.00 | 78 | 1012.5 |
| 20260510134507 | 56 | 190 | 0.0 | 2.0 | 0.00 | 0.44 | 0.00 | 79 | 1012.7 |
| 20260510133003 | 55 | 190 | 0.0 | 0.0 | 0.00 | 0.44 | 0.00 | 79 | 1012.6 |
| 20260510131502 | 55 | 190 | 0.0 | 0.0 | 0.00 | 0.44 | 0.00 | 80 | 1012.7 |
| 20260510130002 | 55 | 190 | 0.0 | 0.0 | 0.00 | 0.46 | 0.00 | 81 | 1012.7 |
| 20260510124617 | 55 | 190 | 0.0 | 0.0 | 0.00 | 0.46 | 0.00 | 82 | 1012.5 |
| 20260510123056 | 54 | 190 | 0.0 | 0.0 | 0.00 | 0.46 | 0.00 | 82 | 1012.4 |
| 20260510121557 | 53 | 190 | 0.0 | 0.0 | 0.00 | 0.46 | 0.00 | 82 | 1012.4 |
| 20260510120056 | 53 | 190 | 0.0 | 0.0 | 0.00 | 0.46 | 0.00 | 82 | 1012.5 |
| 20260510114603 | 53 | 190 | 0.0 | 0.0 | 0.00 | 0.46 | 0.00 | 82 | 1012.6 |
| 20260510113051 | 52 | 190 | 0.0 | 0.0 | 0.00 | 0.46 | 0.00 | 82 | 1012.4 |
| 20260510111549 | 52 | 190 | 0.0 | 0.0 | 0.00 | 0.46 | 0.00 | 82 | 1012.5 |
| 20260510110048 | 51 | 190 | 0.0 | 0.0 | 0.00 | 0.46 | 0.00 | 82 | 1012.4 |
| 20260510104604 | 51 | 190 | 0.0 | 0.0 | 0.00 | 0.50 | 0.00 | 82 | 1012.1 |
| 20260510103049 | 51 | 190 | 0.0 | 0.0 | 0.00 | 0.50 | 0.00 | 82 | 1012.0 |
| 20260510101544 | 51 | 190 | 0.0 | 0.0 | 0.00 | 0.50 | 0.00 | 82 | 1011.5 |
| 20260510100052 | 51 | 190 | 0.0 | 0.0 | 0.00 | 0.50 | 0.00 | 82 | 1011.3 |
| 20260510094547 | 51 | 190 | 0.0 | 0.0 | 0.00 | 0.54 | 0.00 | 82 | 1011.3 |
| 20260510093041 | 51 | 190 | 0.0 | 0.0 | 0.00 | 0.54 | 0.00 | 82 | 1011.5 |
| 20260510091541 | 51 | 190 | 0.0 | 0.0 | 0.00 | 0.54 | 0.00 | 82 | 1011.3 |
| 20260510090042 | 51 | 190 | 0.0 | 0.0 | 0.00 | 0.54 | 0.00 | 82 | 1011.3 |
| 20260510084550 | 51 | 190 | 0.0 | 0.0 | 0.00 | 0.54 | 0.00 | 82 | 1011.6 |
| 20260510083041 | 51 | 190 | 0.0 | 0.0 | 0.00 | 0.54 | 0.00 | 82 | 1011.5 |
| 20260510081538 | 51 | 190 | 0.0 | 0.0 | 0.00 | 0.54 | 0.00 | 82 | 1011.6 |
| 20260510080040 | 51 | 190 | 0.0 | 0.0 | 0.00 | 0.54 | 0.00 | 82 | 1011.5 |
| 20260510074538 | 51 | 190 | 0.0 | 0.0 | 0.00 | 0.54 | 0.00 | 82 | 1011.3 |
| 20260510073044 | 51 | 190 | 0.0 | 0.0 | 0.00 | 0.54 | 0.00 | 82 | 1011.3 |
| 20260510071544 | 50 | 190 | 0.0 | 0.0 | 0.00 | 0.54 | 0.00 | 82 | 1011.1 |
| 20260510070040 | 50 | 190 | 0.0 | 0.0 | 0.00 | 0.54 | 0.00 | 82 | 1011.3 |
| 20260510064542 | 50 | 190 | 0.0 | 0.0 | 0.00 | 0.54 | 0.00 | 82 | 1011.4 |
| 20260510063037 | 50 | 190 | 0.0 | 0.0 | 0.00 | 0.54 | 0.00 | 82 | 1011.2 |
| 20260510061537 | 50 | 190 | 0.0 | 0.0 | 0.00 | 0.54 | 0.00 | 82 | 1011.0 |
| 20260510060037 | 50 | 190 | 0.0 | 0.0 | 0.00 | 0.54 | 0.00 | 82 | 1010.8 |
| 20260510054531 | 51 | 190 | 0.0 | 0.0 | 0.00 | 0.54 | 0.00 | 82 | 1011.0 |
| 20260510053027 | 51 | 190 | 0.0 | 0.0 | 0.00 | 0.54 | 0.00 | 82 | 1011.4 |
| 20260510051537 | 51 | 190 | 0.0 | 0.0 | 0.00 | 0.54 | 0.00 | 82 | 1011.2 |
| 20260510050026 | 51 | 190 | 0.0 | 0.0 | 0.00 | 0.54 | 0.00 | 82 | 1011.2 |
| 20260510044529 | 52 | 190 | 0.0 | 0.0 | 0.00 | 0.54 | 0.00 | 82 | 1011.2 |
| 20260510043025 | 52 | 190 | 0.0 | 0.0 | 0.00 | 0.54 | 0.00 | 82 | 1011.5 |
| 20260510041521 | 52 | 190 | 0.0 | 0.0 | 0.00 | 0.54 | 0.00 | 82 | 1011.5 |
| 20260510040020 | 52 | 190 | 0.0 | 0.0 | 0.00 | 0.54 | 0.54 | 82 | 1011.5 |
| 20260510034520 | 52 | 190 | 0.0 | 0.0 | 0.00 | 0.54 | 0.54 | 82 | 1011.3 |
| 20260510033021 | 52 | 190 | 0.0 | 0.0 | 0.00 | 0.54 | 0.54 | 82 | 1011.5 |
| 20260510031504 | 52 | 0 | 0.0 | 0.0 | 0.00 | 0.54 | 0.54 | 82 | 1010.4 |
| 20260510031004 | 52 | 0 | 0.0 | 0.0 | 0.00 | 0.54 | 0.54 | 82 | 1010.4 |
| 20260510030503 | 52 | 0 | 0.0 | 0.0 | 0.00 | 0.54 | 0.54 | 82 | 1010.3 |
| 20260510030004 | 52 | 0 | 0.0 | 0.0 | 0.00 | 0.54 | 0.54 | 82 | 1010.4 |
| 20260510025503 | 52 | 0 | 0.0 | 0.0 | 0.00 | 0.54 | 0.54 | 82 | 1010.4 |
| 20260510024506 | 51 | 190 | 0.0 | 0.0 | 0.00 | 0.54 | 0.54 | 82 | 1011.1 |
| 20260510024504 | 52 | 0 | 0.0 | 0.0 | 0.00 | 0.54 | 0.54 | 82 | 1010.3 |
| 20260510024004 | 52 | 0 | 0.0 | 0.0 | 0.00 | 0.54 | 0.54 | 82 | 1010.3 |
| 20260510023503 | 52 | 0 | 0.0 | 0.0 | 0.00 | 0.54 | 0.54 | 82 | 1010.3 |
| 20260510023004 | 51 | 190 | 0.0 | 0.0 | 0.00 | 0.54 | 0.54 | 82 | 1011.3 |
| 20260510022503 | 52 | 0 | 0.0 | 0.0 | 0.00 | 0.54 | 0.54 | 82 | 1010.8 |
| 20260510022003 | 52 | 0 | 0.0 | 0.0 | 0.00 | 0.54 | 0.54 | 82 | 1010.9 |
| 20260510021504 | 52 | 0 | 0.0 | 0.0 | 0.00 | 0.54 | 0.54 | 82 | 1010.9 |
| 20260510021004 | 52 | 0 | 0.0 | 0.0 | 0.00 | 0.54 | 0.54 | 82 | 1010.9 |
| 20260510020504 | 52 | 0 | 0.0 | 0.0 | 0.00 | 0.54 | 0.54 | 82 | 1010.9 |
| 20260510020004 | 52 | 0 | 0.0 | 0.0 | 0.00 | 0.54 | 0.54 | 82 | 1011.0 |
| 20260510015504 | 52 | 0 | 0.0 | 0.0 | 0.00 | 0.54 | 0.54 | 82 | 1010.9 |
| 20260510015003 | 52 | 0 | 0.0 | 0.0 | 0.00 | 0.54 | 0.54 | 82 | 1011.0 |
| 20260510014504 | 52 | 0 | 0.0 | 0.0 | 0.00 | 0.54 | 0.54 | 82 | 1010.9 |
| 20260510014502 | 52 | 190 | 0.0 | 0.0 | 0.00 | 0.54 | 0.54 | 82 | 1011.8 |
| 20260510014003 | 52 | 0 | 0.0 | 0.0 | 0.00 | 0.54 | 0.54 | 82 | 1010.9 |
| 20260510013505 | 52 | 0 | 0.0 | 0.0 | 0.00 | 0.54 | 0.54 | 82 | 1010.8 |
| 20260510013004 | 52 | 190 | 0.0 | 0.0 | 0.00 | 0.54 | 0.54 | 82 | 1011.5 |
| 20260510012504 | 52 | 0 | 0.0 | 0.0 | 0.00 | 0.54 | 0.54 | 82 | 1010.6 |
| 20260510012004 | 52 | 0 | 0.0 | 0.0 | 0.00 | 0.54 | 0.54 | 82 | 1010.5 |
| 20260510011502 | 52 | 190 | 0.0 | 0.0 | 0.00 | 0.54 | 0.54 | 82 | 1011.3 |
| 20260510011003 | 52 | 0 | 0.0 | 0.0 | 0.00 | 0.54 | 0.54 | 82 | 1010.5 |
| 20260510010504 | 52 | 0 | 0.0 | 0.0 | 0.00 | 0.54 | 0.54 | 82 | 1010.5 |
| 20260510010004 | 52 | 190 | 0.0 | 0.0 | 0.00 | 0.54 | 0.54 | 82 | 1011.2 |
| 20260510005503 | 52 | 0 | 0.0 | 0.0 | 0.00 | 0.54 | 0.54 | 82 | 1010.3 |
| 20260510005003 | 52 | 0 | 0.0 | 0.0 | 0.00 | 0.54 | 0.54 | 82 | 1010.3 |
| 20260510004504 | 52 | 0 | 0.0 | 0.0 | 0.00 | 0.54 | 0.54 | 82 | 1010.3 |
| 20260510003503 | 52 | 0 | 0.0 | 0.0 | 0.00 | 0.54 | 0.54 | 82 | 1010.2 |
| 20260510003004 | 53 | 0 | 0.0 | 0.0 | 0.00 | 0.54 | 0.54 | 82 | 1010.2 |
| 20260510003002 | 52 | 190 | 0.0 | 0.0 | 0.00 | 0.54 | 0.54 | 82 | 1011.0 |
| 20260510002503 | 53 | 0 | 0.0 | 0.0 | 0.00 | 0.54 | 0.54 | 82 | 1010.2 |
| 20260510002004 | 53 | 0 | 0.0 | 0.0 | 0.00 | 0.54 | 0.54 | 82 | 1010.2 |
| 20260510001504 | 53 | 0 | 0.0 | 0.0 | 0.00 | 0.54 | 0.54 | 82 | 1010.2 |
| 20260510001502 | 52 | 190 | 0.0 | 0.0 | 0.00 | 0.54 | 0.54 | 82 | 1011.0 |
| 20260510001004 | 53 | 0 | 0.0 | 0.0 | 0.00 | 0.54 | 0.54 | 82 | 1010.2 |
| 20260510000504 | 53 | 0 | 0.0 | 0.0 | 0.00 | 0.54 | 0.54 | 82 | 1010.2 |
| 20260510000004 | 53 | 0 | 0.0 | 0.0 | 0.00 | 0.54 | 0.54 | 82 | 1010.3 |
| 20260509235503 | 53 | 0 | 0.0 | 0.0 | 0.01 | 0.54 | 0.54 | 82 | 1010.4 |
| 20260509235004 | 53 | 0 | 0.0 | 0.0 | 0.01 | 0.54 | 0.54 | 82 | 1010.3 |
| 20260509234503 | 53 | 190 | 0.0 | 0.0 | 0.01 | 0.54 | 0.54 | 82 | 1011.1 |
| 20260509234003 | 53 | 0 | 0.0 | 0.0 | 0.02 | 0.54 | 0.54 | 82 | 1010.3 |
| 20260509233503 | 53 | 0 | 0.0 | 0.0 | 0.03 | 0.54 | 0.54 | 82 | 1010.2 |
| 20260509233003 | 53 | 0 | 0.0 | 0.0 | 0.04 | 0.54 | 0.54 | 82 | 1010.3 |
| 20260509232504 | 53 | 0 | 0.0 | 0.0 | 0.06 | 0.54 | 0.54 | 82 | 1010.2 |
| 20260509232003 | 53 | 0 | 0.0 | 0.0 | 0.07 | 0.54 | 0.54 | 82 | 1010.1 |
| 20260509231504 | 53 | 190 | 0.0 | 0.0 | 0.08 | 0.54 | 0.54 | 82 | 1010.8 |
| 20260509231003 | 53 | 0 | 0.0 | 0.0 | 0.09 | 0.54 | 0.54 | 82 | 1009.9 |
| 20260509230503 | 53 | 0 | 0.0 | 0.0 | 0.09 | 0.54 | 0.54 | 82 | 1009.9 |
| 20260509230003 | 53 | 0 | 0.0 | 0.0 | 0.09 | 0.53 | 0.53 | 82 | 1009.9 |
| 20260509225503 | 53 | 0 | 0.0 | 0.0 | 0.09 | 0.53 | 0.53 | 82 | 1010.0 |
| 20260509225004 | 53 | 191 | 0.0 | 4.0 | 0.09 | 0.53 | 0.53 | 82 | 1010.2 |
| 20260509224503 | 53 | 191 | 0.0 | 4.0 | 0.10 | 0.53 | 0.53 | 82 | 1010.2 |
| 20260509224004 | 53 | 191 | 0.0 | 4.0 | 0.09 | 0.52 | 0.52 | 82 | 1010.0 |
| 20260509223503 | 53 | 191 | 0.0 | 1.0 | 0.09 | 0.51 | 0.51 | 82 | 1009.8 |
| 20260509223003 | 52 | 190 | 0.0 | 1.0 | 0.07 | 0.49 | 0.49 | 82 | 1010.7 |
| 20260509222003 | 53 | 0 | 0.0 | 0.0 | 0.06 | 0.47 | 0.47 | 82 | 1010.0 |
| 20260509221508 | 52 | 190 | 0.0 | 0.0 | 0.06 | 0.46 | 0.46 | 82 | 1010.8 |
| 20260509221503 | 53 | 0 | 0.0 | 0.0 | 0.06 | 0.46 | 0.46 | 82 | 1010.0 |
| 20260509221003 | 53 | 0 | 0.0 | 0.0 | 0.05 | 0.45 | 0.45 | 82 | 1010.1 |
| 20260509220004 | 53 | 0 | 0.0 | 0.0 | 0.05 | 0.44 | 0.44 | 82 | 1010.2 |
| 20260509220002 | 52 | 190 | 0.0 | 0.0 | 0.05 | 0.44 | 0.44 | 82 | 1011.0 |
| 20260509215503 | 53 | 0 | 0.0 | 0.0 | 0.06 | 0.44 | 0.44 | 82 | 1010.3 |
| 20260509215004 | 53 | 0 | 0.0 | 0.0 | 0.07 | 0.44 | 0.44 | 82 | 1010.4 |
| 20260509214504 | 53 | 0 | 0.0 | 0.0 | 0.06 | 0.43 | 0.43 | 82 | 1010.4 |
| 20260509214502 | 52 | 190 | 0.0 | 0.0 | 0.06 | 0.43 | 0.43 | 82 | 1011.2 |
| 20260509214004 | 53 | 0 | 0.0 | 0.0 | 0.07 | 0.43 | 0.43 | 82 | 1010.4 |
| 20260509213504 | 53 | 0 | 0.0 | 0.0 | 0.06 | 0.42 | 0.42 | 82 | 1010.5 |
| 20260509213004 | 53 | 0 | 0.0 | 0.0 | 0.07 | 0.42 | 0.42 | 82 | 1010.5 |
| 20260509212503 | 53 | 0 | 0.0 | 0.0 | 0.07 | 0.41 | 0.41 | 82 | 1010.5 |
| 20260509212003 | 52 | 0 | 0.0 | 0.0 | 0.08 | 0.41 | 0.41 | 82 | 1010.5 |
| 20260509211503 | 52 | 0 | 0.0 | 0.0 | 0.09 | 0.40 | 0.40 | 82 | 1010.5 |
| 20260509211003 | 52 | 0 | 0.0 | 0.0 | 0.10 | 0.40 | 0.40 | 82 | 1010.5 |
| 20260509210503 | 52 | 0 | 0.0 | 0.0 | 0.11 | 0.39 | 0.39 | 82 | 1010.6 |
| 20260509210003 | 52 | 190 | 0.0 | 0.0 | 0.11 | 0.38 | 0.38 | 82 | 1011.5 |
| 20260509204504 | 51 | 190 | 0.0 | 0.0 | 0.13 | 0.37 | 0.37 | 82 | 1011.7 |
| 20260509204004 | 52 | 0 | 0.0 | 0.0 | 0.12 | 0.36 | 0.36 | 82 | 1011.0 |
| 20260509203503 | 52 | 0 | 0.0 | 0.0 | 0.13 | 0.36 | 0.36 | 82 | 1010.9 |
| 20260509203002 | 51 | 190 | 0.0 | 0.0 | 0.13 | 0.35 | 0.35 | 82 | 1011.8 |
| 20260509202504 | 52 | 0 | 0.0 | 0.0 | 0.12 | 0.34 | 0.34 | 82 | 1011.1 |
| 20260509201503 | 51 | 190 | 0.0 | 0.0 | 0.10 | 0.31 | 0.31 | 82 | 1012.2 |
| 20260509201004 | 52 | 0 | 0.0 | 0.0 | 0.10 | 0.30 | 0.30 | 82 | 1011.2 |
| 20260509200504 | 52 | 0 | 0.0 | 0.0 | 0.08 | 0.28 | 0.28 | 82 | 1011.2 |
| 20260509200004 | 52 | 0 | 0.0 | 0.0 | 0.07 | 0.27 | 0.27 | 81 | 1011.4 |
| 20260509200002 | 51 | 190 | 0.0 | 0.0 | 0.07 | 0.27 | 0.27 | 81 | 1012.2 |
| 20260509195504 | 52 | 0 | 0.0 | 0.0 | 0.06 | 0.26 | 0.26 | 81 | 1011.3 |
| 20260509195004 | 52 | 0 | 0.0 | 0.0 | 0.05 | 0.25 | 0.25 | 81 | 1011.2 |
| 20260509194504 | 53 | 0 | 0.0 | 0.0 | 0.04 | 0.24 | 0.24 | 81 | 1011.1 |
| 20260509194502 | 52 | 190 | 0.0 | 0.0 | 0.04 | 0.24 | 0.24 | 81 | 1012.0 |
| 20260509194004 | 53 | 0 | 0.0 | 0.0 | 0.04 | 0.24 | 0.24 | 81 | 1011.1 |
| 20260509193004 | 53 | 0 | 0.0 | 0.0 | 0.02 | 0.22 | 0.22 | 82 | 1011.0 |
| 20260509193002 | 53 | 190 | 0.0 | 0.0 | 0.02 | 0.22 | 0.22 | 82 | 1011.9 |